Total_Precipitation_Accumulation
0.59 0.54 0.50 0.49 0.45 0.41 0.39 0.41 0.40 0.38 0.39 0.43 0.43 0.39 0.38 0.34 0.31 0.30 0.27 0.28 0.26 0.27 0.43 0.62 0.78 1.01 1.22 1.39 1.60 1.65 1.41 1.24 1.10 0.98 0.98 1.09 1.17 1.20 1.23 1.31 1.42 1.40 1.26
0.65 0.56 0.52 0.49 0.47 0.46 0.44 0.42 0.40 0.37 0.32 0.30 0.28 0.28 0.32 0.34 0.35 0.35 0.31 0.31 0.30 0.28 0.34 0.52 0.70 0.92 1.18 1.44 1.67 1.92 1.76 1.57 1.39 1.19 1.04 1.05 1.13 1.19 1.21 1.28 1.40 1.55 1.56
0.79 0.69 0.62 0.55 0.50 0.47 0.46 0.47 0.45 0.42 0.38 0.32 0.28 0.25 0.24 0.25 0.29 0.33 0.33 0.32 0.34 0.32 0.32 0.42 0.59 0.78 1.04 1.35 1.65 1.92 2.11 1.94 1.74 1.56 1.32 1.13 1.14 1.23 1.29 1.37 1.46 1.58 1.68
0.90 0.84 0.78 0.74 0.68 0.61 0.55 0.50 0.47 0.45 0.42 0.37 0.33 0.29 0.28 0.26 0.25 0.26 0.28 0.31 0.35 0.36 0.35 0.40 0.51 0.71 0.93 1.13 1.43 1.75 2.14 2.18 2.13 1.99 1.84 1.54 1.31 1.32 1.42 1.49 1.61 1.66 1.67
1.02 0.97 0.91 0.88 0.89 0.83 0.71 0.59 0.52 0.46 0.44 0.40 0.37 0.35 0.32 0.29 0.29 0.29 0.26 0.24 0.26 0.31 0.36 0.39 0.46 0.59 0.74 0.94 1.21 1.53 1.89 2.24 2.36 2.35 2.29 2.09 1.74 1.48 1.49 1.59 1.63 1.72 1.80
1.13 1.11 1.03 0.95 0.94 0.94 0.89 0.74 0.59 0.52 0.47 0.45 0.42 0.41 0.40 0.38 0.33 0.30 0.28 0.26 0.24 0.26 0.33 0.38 0.41 0.48 0.59 0.74 0.97 1.28 1.65 2.08 2.46 2.54 2.52 2.52 2.38 1.98 1.76 1.75 1.75 1.85 1.99
1.35 1.29 1.21 1.15 1.08 1.00 0.91 0.82 0.72 0.66 0.58 0.52 0.54 0.53 0.47 0.43 0.42 0.36 0.31 0.28 0.27 0.26 0.29 0.37 0.43 0.44 0.52 0.65 0.78 0.94 1.27 1.73 2.27 2.80 2.80 2.73 2.82 2.64 2.27 2.09 2.05 2.11 2.30
1.51 1.52 1.45 1.35 1.25 1.16 1.07 0.95 0.85 0.82 0.77 0.66 0.62 0.66 0.65 0.60 0.50 0.41 0.36 0.30 0.30 0.30 0.30 0.33 0.40 0.46 0.49 0.56 0.61 0.77 0.97 1.31 1.80 2.54 3.22 3.26 3.28 3.38 2.99 2.57 2.41 2.43 2.54
1.28 1.32 1.31 1.27 1.32 1.27 1.18 1.07 0.95 0.90 0.89 0.79 0.67 0.78 0.89 0.76 0.54 0.44 0.41 0.36 0.32 0.32 0.31 0.31 0.36 0.43 0.48 0.55 0.57 0.62 0.75 0.99 1.35 1.95 2.83 3.58 3.77 3.93 3.85 3.22 2.88 2.81 2.80
1.24 1.20 1.22 1.19 1.14 1.14 1.09 1.02 0.96 0.88 0.91 0.90 0.77 0.69 0.69 0.70 0.74 0.60 0.43 0.40 0.40 0.37 0.34 0.32 0.32 0.39 0.47 0.55 0.64 0.66 0.67 0.80 1.08 1.51 2.21 3.14 3.93 4.30 4.54 4.16 3.51 3.25 3.18
1.29 1.30 1.24 1.20 1.18 1.09 0.99 0.94 0.94 0.94 0.91 0.88 0.81 0.73 0.65 0.57 0.58 0.71 0.57 0.48 0.52 0.49 0.46 0.42 0.40 0.42 0.47 0.57 0.63 0.70 0.79 0.85 1.12 1.36 1.74 2.38 3.41 4.28 4.88 4.97 4.39 3.75 3.42
1.28 1.30 1.30 1.22 1.17 1.16 1.08 0.97 0.92 0.94 0.91 0.87 0.85 0.79 0.76 0.74 0.64 0.66 0.64 0.51 0.50 0.49 0.51 0.56 0.56 0.56 0.60 0.65 0.76 0.92 0.91 0.98 1.20 1.30 1.38 1.67 2.39 3.39 4.30 4.87 4.69 4.04 3.62
1.24 1.23 1.26 1.24 1.19 1.16 1.12 1.06 1.01 0.98 0.95 0.95 0.94 0.88 0.81 0.76 0.71 0.77 0.84 0.70 0.56 0.49 0.50 0.55 0.58 0.62 0.68 0.73 0.88 0.99 0.98 1.07 1.14 1.22 1.23 1.33 1.68 2.39 3.28 4.23 4.69 4.34 3.79
1.15 1.11 1.13 1.13 1.09 1.06 1.05 1.04 1.03 0.98 0.98 1.01 0.99 0.97 0.93 0.82 0.81 0.89 1.00 1.08 0.95 0.66 0.53 0.55 0.56 0.62 0.71 0.80 0.96 1.09 1.06 1.09 1.12 1.19 1.20 1.17 1.28 1.58 2.26 3.30 4.55 4.99 4.34
1.10 1.12 1.11 1.07 0.99 0.95 0.93 0.92 0.92 0.90 0.94 0.96 0.98 1.02 1.02 0.93 0.91 0.92 0.99 1.18 1.43 1.22 0.72 0.53 0.55 0.61 0.69 0.78 0.99 0.92 0.88 0.92 0.94 0.99 1.08 1.11 1.13 1.26 1.56 2.16 3.11 4.47 5.11
1.03 1.05 1.09 1.08 1.01 0.93 0.92 0.91 0.86 0.81 0.86 0.89 0.92 0.98 1.01 0.98 0.94 0.93 1.00 1.05 1.18 1.34 1.07 0.60 0.54 0.58 0.71 0.76 0.84 0.80 0.83 0.96 0.96 0.97 1.01 1.06 1.11 1.15 1.30 1.58 2.08 2.93 4.14
0.95 0.94 0.96 1.00 0.99 0.95 0.93 0.98 0.93 0.85 0.85 0.86 0.89 0.92 0.92 0.95 1.00 0.95 0.98 1.01 1.01 1.08 1.07 0.65 0.51 0.54 0.71 0.79 0.77 0.74 0.80 0.85 0.88 0.97 0.98 1.00 1.05 1.13 1.29 1.45 1.72 2.15 2.85
0.94 0.95 0.94 0.97 0.97 0.98 0.97 0.98 0.95 0.88 0.88 0.87 0.87 0.86 0.86 0.87 0.94 0.91 0.91 0.91 0.89 0.85 0.90 0.74 0.52 0.52 0.60 0.69 0.80 0.86 0.84 0.83 0.82 0.91 0.94 1.02 1.12 1.15 1.22 1.37 1.59 1.90 2.27
0.94 0.94 0.95 0.97 1.02 1.04 1.01 0.95 0.95 0.90 0.86 0.87 0.88 0.89 0.86 0.89 0.92 0.88 0.89 0.86 0.78 0.73 0.76 0.78 0.62 0.54 0.57 0.63 0.80 0.95 0.93 0.92 0.89 0.91 0.95 1.03 1.11 1.18 1.22 1.30 1.47 1.69 1.89
0.97 0.89 0.89 0.93 1.04 1.20 1.20 1.11 1.13 1.03 0.91 0.86 0.83 0.82 0.86 0.96 0.97 0.95 0.98 0.88 0.82 0.84 0.87 0.91 0.78 0.66 0.68 0.71 0.88 1.10 1.18 1.12 1.08 0.97 1.00 1.04 1.16 1.25 1.25 1.22 1.25 1.32 1.47
0.95 0.87 0.84 0.87 0.96 1.31 1.67 1.64 1.55 1.30 1.01 0.85 0.78 0.78 0.85 0.99 1.04 1.17 1.27 1.14 1.10 1.20 1.17 1.18 1.09 0.98 0.93 0.96 1.04 1.09 1.24 1.27 1.27 1.13 1.04 0.99 1.04 1.05 1.10 1.14 1.18 1.21 1.28
1.00 0.91 0.86 0.84 0.87 1.14 1.73 1.86 1.56 1.16 0.98 0.87 0.82 0.78 0.79 0.91 0.95 1.04 1.19 1.26 1.32 1.44 1.50 1.49 1.43 1.30 1.08 1.00 1.05 1.19 1.27 1.44 1.51 1.24 1.16 1.10 1.06 1.14 1.09 1.08 1.20 1.21 1.24
1.05 1.05 0.93 0.84 0.81 0.95 1.53 1.67 1.37 1.03 0.89 0.85 0.80 0.79 0.79 0.85 0.92 0.91 1.00 1.02 1.05 1.20 1.42 1.53 1.59 1.26 1.08 1.03 1.23 1.43 1.40 1.48 1.45 1.37 1.47 1.41 1.15 1.16 1.11 1.20 1.35 1.26 1.22
0.95 1.01 0.98 0.90 0.83 0.87 1.36 1.53 1.28 1.01 0.88 0.81 0.75 0.77 0.76 0.78 0.89 1.09 1.07 1.00 0.90 0.92 1.13 1.34 1.57 1.41 1.25 1.29 1.59 1.89 1.99 1.87 1.51 1.33 1.48 1.66 1.27 1.16 1.18 1.27 1.41 1.32 1.20
0.86 0.88 0.90 0.89 0.85 0.83 1.13 1.38 1.24 0.98 0.92 0.84 0.74 0.73 0.75 0.75 0.95 1.22 1.18 1.03 0.86 0.78 0.89 1.21 1.50 1.63 1.65 1.76 1.97 2.29 2.47 2.30 1.87 1.38 1.36 1.60 1.47 1.30 1.40 1.55 1.59 1.46 1.22
0.83 0.82 0.83 0.84 0.78 0.72 0.93 1.19 1.21 0.97 0.90 0.85 0.81 0.75 0.83 0.92 1.08 1.22 1.12 1.08 1.15 0.95 0.83 0.88 0.97 1.09 1.19 1.33 1.67 1.95 2.24 2.31 1.99 1.80 1.49 1.56 1.68 1.67 1.89 1.78 1.65 1.42 1.21